Tegucigalpa, Honduras

7:50 PM CST en Diciembre 12, 2017 (GMT -0600)
Toncontin International

Tiempo Historia de MHTG - Diciembre, 2017

Change the Weather History Date:

Jueves, Diciembre 7, 2017

  Actual Average Record
Temperature  
Temperatura media 68 ° F -  
Temperatura máxima 73 ° F 76 ° F 82 ° F (1996)
Temperatura mínima 64 ° F 58 ° F 53 ° F (1996)
Cooling Degree Days 4    
Growing Degree Days 18 (Base 50)    
Moisture  
Punto de rocío 64 ° F    
Average Humidity 88    
Maximum Humidity 100    
Minimum Humidity 73    
Precipitación  
Precipitación 0.04 pul 0.01 pul - ()
Presión al nivel del mar  
Presión al nivel del mar 30.04 pul    
Viento  
Velocidad del viento 5 mph ()    
Velocidad máxima del viento 16 mph    
Max Gust Speed -    
Visibilidad 5.0 Millas    
Eventos Lluvia    
Averages and records for this station are not official NWS values.
T = Trace of Precipitation, MM = Missing Value Source: Averaged Metar Reports

Daily Weather History Graph

Daily Weather History Graph

Search for Another Location

Airport or City:

Trip Planner

Search our weather history database for the weather conditions in past years. The results will help you decide how hot, cold, wet, or windy it might be!

Date:

Astronomía

Dec. 07, 2017 Salida Puesta
Hora real 6:00 AM CST 5:20 PM CST
Crepúsculo civil 5:37 AM CST 5:43 PM CST
Crepúsculo náutico 5:11 AM CST 6:09 PM CST
Crepúsculo astronómico 4:44 AM CST 6:36 PM CST
Luna 9:49 PM CST (12/7) 9:53 AM CST (12/7)
Horas de luz 12h 05m
Horas de luz
11h 19m
Gibosa menguante, 77% of the Moon is Illuminated
Dic 7
Gibosa menguante
Dic 10
Cuarto menguante
Dic 18
Nueva
Dic 26
Cuarto creciente
Ene 1
Luna llena

Hourly Weather History & Observations

Hora (CST) Temp. Punto de rocío Humedad Presión Visibilidad Wind Dir Velocidad del viento Velocidad de ráfagas Precip Eventos Condiciones
12:00 AM 66 ° F 63 ° F 88% 30.02 pul 5 mi NE 4.6 mph - -  
12:00 AM 66.2 ° F 62.6 ° F 88% 30.09 pul 5.0 mi NE 4.6 mph - N/A   Muy nublado
1:00 AM 66.2 ° F 62.6 ° F 88% 30.09 pul 5.0 mi NNE 6.9 mph - N/A   Muy nublado
2:00 AM 66.2 ° F 62.6 ° F 88% 30.06 pul 6.2 mi Sin viento Sin viento - N/A   Muy nublado
3:00 AM 66 ° F 63 ° F 86% 29.97 pul 5 mi Norte 6.9 mph - -   Muy nublado
3:00 AM 66.2 ° F 62.6 ° F 88% 30.06 pul 5.0 mi Norte 6.9 mph - N/A   Muy nublado
4:00 AM 64.4 ° F 64.4 ° F 100% 30.06 pul 4.3 mi Sin viento Sin viento - N/A Lluvia Lluvia débil
5:00 AM 64.4 ° F 64.4 ° F 100% 30.06 pul 3.7 mi NNE 4.6 mph - N/A   Muy nublado
6:00 AM 65 ° F 64 ° F 96% 30.00 pul 4 mi Norte 3.5 mph - - Lluvia Lluvia débil
6:00 AM 64.4 ° F 64.4 ° F 100% 30.06 pul 4.3 mi Norte 3.5 mph - N/A   Muy nublado
7:00 AM 66.2 ° F 64.4 ° F 94% 30.06 pul 6.2 mi NNE 5.8 mph - N/A   Nubes dispersas
8:00 AM 66.2 ° F 64.4 ° F 94% 30.09 pul 3.7 mi Norte 6.9 mph - N/A   Nubes dispersas
9:00 AM 68 ° F 65 ° F 86% 30.03 pul 2 mi Norte 6.9 mph - -   Muy nublado
9:00 AM 68.0 ° F 64.4 ° F 88% 30.12 pul 3.7 mi Norte 6.9 mph - N/A   Muy nublado
10:00 AM 69.8 ° F 64.4 ° F 83% 30.09 pul 4.3 mi Norte 11.5 mph - N/A   Muy nublado
11:00 AM 73.4 ° F 64.4 ° F 73% 30.09 pul 6.2 mi Norte 16.1 mph - N/A   Muy nublado
12:00 PM 71 ° F 65 ° F 77% 29.95 pul 6 mi Norte 11.5 mph - - Lluvia Llovizna débil
12:00 PM 71.6 ° F 66.2 ° F 83% 30.06 pul 6.2 mi Norte 11.5 mph - N/A   Muy nublado
1:00 PM 66.2 ° F 64.4 ° F 94% 30.06 pul 3.1 mi Sin viento Sin viento - N/A Lluvia Lluvia
2:00 PM 68.0 ° F 64.4 ° F 88% 30.01 pul 4.3 mi Sin viento Sin viento - N/A   Muy nublado
3:00 PM 71 ° F 65 ° F 75% 29.90 pul 6 mi NNO 2.3 mph - -   Bruma
3:00 PM 69.8 ° F 64.4 ° F 83% 30.01 pul 6.2 mi NNO 2.3 mph - N/A   Muy nublado
4:00 PM 71.6 ° F 66.2 ° F 83% 30.01 pul 6.2 mi NNO 2.3 mph - N/A   Muy nublado
5:00 PM 69.8 ° F 64.4 ° F 83% 30.01 pul 5.0 mi Norte 6.9 mph - N/A   Muy nublado
6:00 PM 68 ° F 64 ° F 82% 29.94 pul 2 mi Sin viento Sin viento - -  
6:00 PM 68.0 ° F 64.4 ° F 88% 30.04 pul 5.0 mi Norte 6.9 mph - N/A   Muy nublado
6:05 PM 68.0 ° F 64.4 ° F 88% 30.04 pul 5.0 mi Norte 6.9 mph - N/A   Muy nublado
7:00 PM 66.2 ° F 62.6 ° F 88% 30.04 pul 5.0 mi Norte 5.8 mph - N/A   Muy nublado
8:00 PM 66.2 ° F 62.6 ° F 88% 30.06 pul 6.2 mi Norte 6.9 mph - N/A   Nubes dispersas
9:00 PM 65 ° F 63 ° F 90% 30.01 pul 6 mi Oeste 2.3 mph - -   Bruma
9:00 PM 66.2 ° F 62.6 ° F 88% 30.09 pul 6.2 mi Oeste 2.3 mph - N/A   Muy nublado
10:00 PM 64.4 ° F 62.6 ° F 94% 30.09 pul 6.2 mi NNO 2.3 mph - N/A   Nubes dispersas
11:00 PM 64.4 ° F 62.6 ° F 94% 30.09 pul 6.2 mi SSE 2.3 mph - N/A   Muy nublado